Tracking 33200 objects as of 18-Feb-2026
HD Live streaming from Space Station
objects crossing your sky now

KUIPER-00075

Track KUIPER-00075 now!
10-day predictions
KUIPER-00075 is classified as:


NORAD ID: 64822
Int'l Code: 2025-151G
Perigee: 447.5 km
Apogee: 453.0 km
Inclination: 51.9 °
Period: 93.4 minutes
Semi major axis: 6821 km
RCS: Unknown
Launch date: July 16, 2025
Source: United States (US)
Launch site: AIR FORCE EASTERN TEST RANGE (AFETR)
Your satellite tracking list
Your tracking list is empty




NASA's NSSDC Master Catalog

Two Line Element Set (TLE):
1 64822U 25151G   26048.74211348  .00035941  00000-0  86244-3 0  9995
2 64822  51.8719 318.8298 0004042 182.6993 177.3974 15.41023820 33327
Source of the keplerian elements: AFSPC